Location: Unspecified
(47.4992°N, 121.7766°W)
Time: 03:12:23
(UTC-08:00)

Cosmos 2058 - Pass Details

Date: 05 February 2021
Orbit: 561 x 584 km, 82.5° (Epoch: 24 February)

Event Time Altitude Azimuth Distance (km) Brightness Sun altitude
Rises 18:25:14 0° 178° (S) 2,777 6.5 -12.1°
Reaches altitude 10° 18:27:26 10° 175° (S) 1,880 5.6 -12.5°
Maximum altitude 18:31:30 59° 96° (E) 663 2.9 -13.1°
Drops below altitude 10° 18:35:35 10° 16° (NNE) 1,881 5.3 -13.8°
Sets 18:37:48 0° 13° (NNE) 2,780 6.2 -14.2°
